Weather observations for the past three days for
Greenville Spartanburg International Airport
Imperial (Metric)
Date Time (edt) Wind (mph) Vis. (mi.) Weather Sky Cond. Temperature (ºF) Relative Humidity Wind Chill (°F) Heat Index (°F) Pressure Precipitation (in)
Air Dwpt 6 hour altimeter (in) sea level (mb) 1 hr 3 hr 6 hr
Max. Min.
22 19:53 S 7 10.00 Fair CLR 80.1 59 86 79 49% 81 30 1014.6
22 18:53 S 12 10.00 A Few Clouds FEW055 82 59 46% 82 30 1014.6
22 17:53 SW 6 10.00 Partly Cloudy SCT055 84 60.1 44% 84 30 1014.8
22 16:53 S 8 10.00 Partly Cloudy SCT055 84 60.1 44% 84 30 1014.7
22 15:53 W 9 G 20 10.00 Partly Cloudy SCT055 84 59 43% 84 30.02 1015.3
22 14:53 S 6 10.00 A Few Clouds FEW055 84.9 60.1 43% 85 30.02 1015.5
22 13:53 SW 12 10.00 A Few Clouds FEW045 84.9 63 84.9 71.1 48% 86 30.04 1016.0
22 12:53 S 8 10.00 A Few Clouds FEW046 84 62.1 48% 85 30.06 1016.7
22 11:53 SW 9 10.00 Fair CLR 82.9 62.1 49% 84 30.07 1016.9
22 10:53 SW 8 10.00 Fair CLR 81 61 51% 82 30.07 1017.1
22 09:53 SW 7 10.00 Fair CLR 79 61 54% 80 30.07 1016.9
22 08:53 SW 7 10.00 Fair CLR 75 61 62% 77 30.08 1017.4
22 07:53 S 3 9.00 Fair CLR 71.1 63 71.1 62.1 76% 30.06 1016.8
22 06:53 Calm 10.00 Fair CLR 64.9 61 87% 30.06 1016.9
22 05:53 Calm 10.00 Fair CLR 64 60.1 87% 30.04 1016.2
22 04:53 Calm 10.00 Fair CLR 64 60.1 87% 30.03 1015.8
22 03:53 Calm 10.00 Fair CLR 63 60.1 90% 30.04 1016.2
22 02:53 Calm 10.00 Fair CLR 64 60.1 87% 30.03 1016.0
22 01:53 S 3 10.00 Fair CLR 68 61 79 66 78% 30.04 1016.1
22 00:53 Calm 10.00 Fair CLR 69.1 61 76% 30.03 1015.9
21 22:53 S 6 10.00 Fair CLR 73 61 66% 30.02 1015.5
21 21:53 S 5 10.00 Fair CLR 73.9 61 64% 30.02 1015.3
21 20:53 SE 5 10.00 Fair CLR 75 61 62% 77 30.01 1014.9
21 19:53 SE 6 10.00 Fair CLR 79 60.1 84 79 52% 80 30 1014.8
21 18:53 SE 9 10.00 Fair CLR 82 60.1 47% 82 29.99 1014.6
21 17:53 S 7 10.00 Fair CLR 82.9 61 48% 83 30 1014.8
21 16:53 S 9 G 21 10.00 Fair CLR 84 62.1 48% 85 30.01 1015.0
21 15:53 Calm 10.00 A Few Clouds FEW044 82.9 62.1 49% 84 30.02 1015.4
21 14:53 Vrbl 5 10.00 A Few Clouds FEW043 82 61 49% 83 30.02 1015.5
21 13:53 SW 3 10.00 Partly Cloudy SCT042 82 62.1 82 68 51% 83 30.03 1015.8
21 12:53 Calm 10.00 Partly Cloudy SCT038 80.1 60.1 51% 81 30.05 1016.5
21 11:53 Vrbl 3 10.00 Fair CLR 78.1 60.1 54% 79 30.06 1016.9
21 10:53 Calm 10.00 Fair CLR 77 60.1 56% 79 30.07 1017.1
21 09:53 Calm 10.00 Fair CLR 73.9 59 60% 30.08 1017.4
21 08:53 S 3 10.00 Mostly Cloudy BKN048 72 60.1 66% 30.09 1017.7
21 07:53 Calm 10.00 Overcast OVC049 68 61 69.1 62.1 78% 30.08 1017.6
21 06:53 Calm 10.00 Mostly Cloudy BKN048 63 59 87% 30.06 1016.8
21 05:53 Calm 10.00 Overcast OVC050 63 60.1 90% 30.04 1016.2
21 04:53 Calm 10.00 Overcast OVC050 64 60.1 87% 30.03 1016.0
21 03:53 NW 3 10.00 Fair CLR 63 57.9 84% 30.02 1015.7
21 02:53 SE 3 10.00 Fair CLR 66 59 78% 30.02 1015.6
21 01:53 SE 3 10.00 A Few Clouds FEW075 69.1 57.9 78.1 69.1 68% 30.03 1015.8
21 00:53 SE 3 10.00 Overcast OVC075 70 57.9 66% 30.04 1016.1
20 23:53 SE 5 10.00 Overcast BKN055 OVC070 72 59 64% 30.03 1015.9
20 22:53 SE 6 10.00 Overcast BKN055 OVC070 73.9 59 60% 30.03 1015.7
20 21:53 SE 5 10.00 Mostly Cloudy BKN055 75 59 58% 77 30.01 1015.3
20 20:53 SE 6 10.00 Overcast BKN055 OVC070 75.9 60.1 58% 78 30 1015.0
20 19:53 SE 6 10.00 Mostly Cloudy BKN060 BKN075 78.1 59 82 78.1 52% 79 29.99 1014.4
20 18:53 E 7 10.00 Fair CLR 80.1 59 49% 81 29.97 1013.9
20 16:53 E 10 10.00 Fair CLR 82 59 46% 82 29.98 1014.3
20 15:53 Calm 10.00 A Few Clouds FEW043 81 59 47% 81 30 1014.9
20 14:53 Vrbl 3 10.00 A Few Clouds FEW049 80.1 62.1 54% 81 30.01 1015.4
20 13:53 E 7 10.00 Partly Cloudy FEW038 SCT049 78.1 61 79 63 56% 80 30.04 1016.1
20 12:53 N 3 10.00 Overcast BKN034 OVC042 75 60.1 60% 77 30.05 1016.8
20 11:53 N 8 10.00 Mostly Cloudy BKN031 75 60.1 60% 77 30.06 1016.9
20 10:53 E 6 10.00 A Few Clouds FEW030 75 61 62% 77 30.06 1016.8
20 09:53 E 5 10.00 A Few Clouds FEW019 71.1 62.1 73% 30.05 1016.7
20 08:53 NE 5 10.00 Fair CLR 68 61 78% 30.05 1016.7
20 07:53 Calm 10.00 Fair CLR 63 60.1 63 57.9 90% 30.05 1016.6
20 05:53 Calm 4.00 Fog/Mist CLR 57.9 55.9 93% 30.03 1016.2
20 04:53 Calm 9.00 Fair CLR 59 57 93% 30.03 1016.1
20 02:53 Calm 10.00 Fair CLR 60.1 57.9 93% 30.03 1016.0
20 01:53 Calm 10.00 Fair CLR 60.1 57.9 72 60.1 93% 30.03 1015.9
20 00:53 Calm 10.00 Fair CLR 61 59 93% 30.03 1016.0
19 23:53 Calm 10.00 Fair CLR 62.1 59 90% 30.02 1015.8
19 22:53 Calm 10.00 Partly Cloudy SCT039 64 60.1 87% 30.02 1015.9
19 21:53 E 5 10.00 Mostly Cloudy BKN038 66.9 60.1 79% 30.01 1015.4
19 20:53 SE 3 10.00 Fair CLR 69.1 59 70% 29.99 1014.8
Date Time (edt) Wind (mph) Vis. (mi.) Weather Sky Cond. Air Dwpt Max. Min. Relative Humidity Wind Chill (°F) Heat Index (°F) altimeter (in) sea level (mb) 1 hr 3 hr 6 hr
6 hour
Temperature (ºF) Pressure Precipitation (in)